Regional Weather Roundup
Issued by NWS

Home | Current Version | Previous Version | Graphics & Text | Print | Product List | Glossary On
Versions: 1 2 3 4 5 6 7 8 9 10 11 12 13 14 15 16 17 18 19 20 21 22 23 24 25 26 27 28 29 30 31 32 33 34 35 36 37 38 39 40 41 42 43 44 45 46 47 48 49 50
000
ASUS43 KBIS 301110
RWRND

NORTH DAKOTA REGIONAL WEATHER ROUNDUP
NATIONAL WEATHER SERVICE BISMARCK ND
600 AM CDT MON MAY 30 2016

NOTE: "FAIR" INDICATES FEW OR NO CLOUDS BELOW 12,000 FEET WITH NO
SIGNIFICANT WEATHER AND/OR OBSTRUCTIONS TO VISIBILITY.


NDZ001>003-009>011-017-301200-
NORTHWEST NORTH DAKOTA

CITY           SKY/WX    TMP DP  RH WIND       PRES   REMARKS
WILLISTON      CLOUDY    46  42  86 NE5       29.90S
MINOT          CLEAR     51  46  83 S3        29.89S
MINOT AFB      CLEAR     48  44  86 CALM      29.88S
$$

NDZ018>021-031>035-040>046-301200-
SOUTHWEST NORTH DAKOTA

CITY           SKY/WX    TMP DP  RH WIND       PRES   REMARKS
BISMARCK       CLEAR     52  51  97 NE3       29.94R
DICKINSON      CLEAR     46  43  89 S5        29.90S
GARRISON         N/A     48  45  89 CALM      29.91R
HETTINGER ARPT CLEAR     44  42  93 SE3       29.92F
$$

NDZ004>008-012>016-024-026-027-054-301200-
NORTHEAST NORTH DAKOTA

CITY           SKY/WX    TMP DP  RH WIND       PRES   REMARKS
GRAND FORKS    PTCLDY    50  45  83 S5        29.91R
GRND FRKS AFB  CLEAR     51  46  81 SW5       29.92R
DEVILS LAKE    PTCLDY    53  47  79 CALM      29.92S
$$

NDZ022-023-025-028>030-036>039-047>053-301200-
SOUTHEAST NORTH DAKOTA

CITY           SKY/WX    TMP DP  RH WIND       PRES   REMARKS
FARGO          CLEAR     54  47  77 E6        29.93S
JAMESTOWN      CLEAR     51  48  89 S6        29.93S
$$





USA.gov is the U.S. government's official web portal to all federal, state and local government web resources and services.